Torna al catalogo

THORAD AGENA D DEB

AttivoSSO
NORAD 42506·DEBRIS·🇺🇸 United States

Lanciato Apr 8, 1970 da Vandenberg Space Force Base

Loading…

Prossimi Passaggi (prossime 24 ore)

TLE

AggiornatoSource: Space-Track

Epoca: Sep 11, 2026, 10:16 UTC

1 42506U 70025RL  26254.42839470  .00000198  00000-0  22557-3 0  9999
2 42506  99.5566 331.1954 0050582  85.6937 274.9993 13.81671533294795

Traccia THORAD AGENA D DEB in tempo reale con AllMySat

Download on the App Store